When you browse on this site, cookies collect data to enhance your experience and personalize the content and advertising you see.
Visit our Privacy Policy to learn more. By continuing to use the site, you agree to this use of cookies and data.

Météo par heure à Kerkira

Ce jour, 12 Août, Mercredi

Heure Température Précipitation Vent Pression Humidité
00:00 +27°C° 0 mm 2 m/s 760 mmHg 70%
01:00 +27°C° 0 mm 2 m/s 760 mmHg 71%
02:00 +27°C° 0 mm 2 m/s 760 mmHg 71%
03:00 +26°C° 0 mm 2 m/s 760 mmHg 71%
04:00 +26°C° 0 mm 2 m/s 760 mmHg 71%
05:00 +27°C° 0 mm 2 m/s 760 mmHg 67%
06:00 +28°C° 0 mm 1 m/s 760 mmHg 64%
07:00 +29°C° 0 mm 1 m/s 760 mmHg 60%
08:00 +31°C° 0 mm 2 m/s 760 mmHg 55%
09:00 +32°C° 0 mm 2 m/s 760 mmHg 49%
10:00 +35°C° 0 mm 2 m/s 760 mmHg 43%
11:00 +34°C° 0 mm 3 m/s 760 mmHg 44%
12:00 +34°C° 0 mm 3 m/s 760 mmHg 45%
13:00 +34°C° 0 mm 3 m/s 760 mmHg 46%
14:00 +34°C° 0 mm 4 m/s 760 mmHg 47%
15:00 +34°C° 0 mm 4 m/s 759 mmHg 49%
16:00 +33°C° 0 mm 5 m/s 759 mmHg 51%
17:00 +32°C° 0 mm 4 m/s 759 mmHg 55%
18:00 +30°C° 0 mm 3 m/s 760 mmHg 59%
19:00 +29°C° 0 mm 3 m/s 760 mmHg 63%
20:00 +29°C° 0 mm 3 m/s 760 mmHg 62%
21:00 +29°C° 0 mm 3 m/s 760 mmHg 61%
22:00 +29°C° 0 mm 3 m/s 760 mmHg 60%
23:00 +28°C° 0 mm 2 m/s 760 mmHg 60%

Demain, 13 Août, Jeudi

Heure Température Précipitation Vent Pression Humidité
00:00 +28°C° 0 mm 2 m/s 760 mmHg 61%
01:00 +27°C° 0 mm 2 m/s 760 mmHg 61%
02:00 +27°C° 0 mm 2 m/s 760 mmHg 63%
03:00 +27°C° 0 mm 3 m/s 760 mmHg 65%
04:00 +26°C° 0 mm 3 m/s 760 mmHg 67%
05:00 +28°C° 0 mm 2 m/s 760 mmHg 63%
06:00 +29°C° 0 mm 2 m/s 760 mmHg 59%
07:00 +30°C° 0 mm 2 m/s 760 mmHg 54%
08:00 +31°C° 0 mm 2 m/s 760 mmHg 49%
09:00 +34°C° 0 mm 2 m/s 760 mmHg 43%
10:00 +35°C° 0 mm 2 m/s 760 mmHg 38%
11:00 +35°C° 0 mm 3 m/s 760 mmHg 38%
12:00 +35°C° 0 mm 3 m/s 760 mmHg 39%
13:00 +35°C° 0 mm 4 m/s 760 mmHg 39%
14:00 +35°C° 0 mm 4 m/s 760 mmHg 41%
15:00 +35°C° 0 mm 4 m/s 759 mmHg 43%
16:00 +34°C° 0 mm 5 m/s 759 mmHg 45%
17:00 +33°C° 0 mm 4 m/s 759 mmHg 50%
18:00 +32°C° 0 mm 4 m/s 759 mmHg 55%
19:00 +30°C° 0 mm 4 m/s 759 mmHg 60%
20:00 +29°C° 0 mm 4 m/s 759 mmHg 60%
21:00 +29°C° 0 mm 3 m/s 760 mmHg 60%
22:00 +29°C° 0 mm 3 m/s 760 mmHg 60%
23:00 +28°C° 0 mm 3 m/s 760 mmHg 61%

Après-demain, 14 Août, Vendredi

Heure Température Précipitation Vent Pression Humidité
00:00 +28°C° 0 mm 3 m/s 760 mmHg 63%
01:00 +27°C° 0 mm 3 m/s 759 mmHg 65%
02:00 +27°C° 0 mm 3 m/s 759 mmHg 66%
03:00 +27°C° 0 mm 2 m/s 759 mmHg 67%
04:00 +26°C° 0 mm 2 m/s 759 mmHg 68%
05:00 +28°C° 0 mm 2 m/s 759 mmHg 64%
06:00 +29°C° 0 mm 1 m/s 759 mmHg 60%
07:00 +30°C° 0 mm 1 m/s 759 mmHg 55%
08:00 +32°C° 0 mm 1 m/s 759 mmHg 51%
09:00 +33°C° 0 mm 1 m/s 759 mmHg 46%
10:00 +34°C° 0 mm 1 m/s 759 mmHg 41%
11:00 +35°C° 0 mm 2 m/s 759 mmHg 42%
12:00 +35°C° 0 mm 2 m/s 759 mmHg 42%
13:00 +35°C° 0 mm 3 m/s 758 mmHg 42%
14:00 +35°C° 0 mm 3 m/s 758 mmHg 43%
15:00 +35°C° 0 mm 3 m/s 758 mmHg 43%
16:00 +34°C° 0 mm 2 m/s 757 mmHg 44%
17:00 +32°C° 0 mm 2 m/s 757 mmHg 49%
18:00 +30°C° 0 mm 2 m/s 757 mmHg 54%
19:00 +29°C° 0 mm 2 m/s 758 mmHg 59%
20:00 +29°C° 0 mm 1 m/s 758 mmHg 59%
21:00 +28°C° 0 mm 1 m/s 758 mmHg 59%
22:00 +28°C° 0 mm 1 m/s 758 mmHg 59%
23:00 +28°C° 0 mm 1 m/s 758 mmHg 60%

15 Août, Samedi

Heure Température Précipitation Vent Pression Humidité
00:00 +27°C° 0 mm 1 m/s 758 mmHg 62%
01:00 +27°C° 0 mm 1 m/s 758 mmHg 63%
02:00 +27°C° 0 mm 1 m/s 758 mmHg 63%
03:00 +27°C° 0 mm 2 m/s 757 mmHg 62%
04:00 +27°C° 0 mm 3 m/s 757 mmHg 62%
05:00 +28°C° 0 mm 3 m/s 757 mmHg 58%
06:00 +29°C° 0 mm 3 m/s 757 mmHg 55%
07:00 +30°C° 0 mm 3 m/s 757 mmHg 52%
08:00 +31°C° 0 mm 3 m/s 757 mmHg 49%
09:00 +33°C° 0 mm 3 m/s 757 mmHg 47%
10:00 +34°C° 0 mm 3 m/s 758 mmHg 44%
11:00 +35°C° 0 mm 3 m/s 757 mmHg 44%
12:00 +35°C° 0 mm 3 m/s 757 mmHg 45%
13:00 +35°C° 0 mm 3 m/s 757 mmHg 45%
14:00 +35°C° 0 mm 2 m/s 756 mmHg 45%
15:00 +34°C° 0 mm 2 m/s 756 mmHg 46%
16:00 +34°C° 0 mm 2 m/s 756 mmHg 46%
17:00 +31°C° 0 mm 1 m/s 756 mmHg 52%
18:00 +30°C° 0 mm 1 m/s 756 mmHg 58%
19:00 +28°C° 0 mm 1 m/s 756 mmHg 64%
20:00 +28°C° 0 mm 1 m/s 757 mmHg 65%
21:00 +27°C° 0 mm 1 m/s 757 mmHg 66%
22:00 +27°C° 0 mm 1 m/s 757 mmHg 67%
23:00 +27°C° 0 mm 1 m/s 757 mmHg 68%

16 Août, Dimanche

Heure Température Précipitation Vent Pression Humidité
00:00 +26°C° 0 mm 1 m/s 757 mmHg 69%
01:00 +26°C° 0 mm 1 m/s 757 mmHg 70%
02:00 +26°C° 0 mm 1 m/s 757 mmHg 71%
03:00 +26°C° 0 mm 1 m/s 757 mmHg 71%
04:00 +25°C° 0 mm 1 m/s 757 mmHg 72%
05:00 +27°C° 0 mm 1 m/s 757 mmHg 67%
06:00 +26°C° 0 mm 0 m/s 757 mmHg 63%
07:00 +27°C° 0 mm 0 m/s 757 mmHg 58%
08:00 +31°C° 0 mm 1 m/s 758 mmHg 53%
09:00 +32°C° 0 mm 1 m/s 758 mmHg 49%
10:00 +34°C° 0 mm 2 m/s 758 mmHg 45%
11:00 +34°C° 0 mm 2 m/s 758 mmHg 45%
12:00 +34°C° 0 mm 3 m/s 758 mmHg 45%
13:00 +34°C° 0 mm 4 m/s 758 mmHg 45%
14:00 +34°C° 0 mm 4 m/s 758 mmHg 46%
15:00 +33°C° 0 mm 4 m/s 757 mmHg 47%
16:00 +33°C° 0 mm 4 m/s 757 mmHg 48%
17:00 +32°C° 0 mm 4 m/s 757 mmHg 52%
18:00 +30°C° 0 mm 3 m/s 758 mmHg 56%
19:00 +29°C° 0 mm 3 m/s 758 mmHg 60%
20:00 +29°C° 0 mm 2 m/s 758 mmHg 60%
21:00 +28°C° 0 mm 2 m/s 758 mmHg 60%
22:00 +28°C° 0 mm 1 m/s 759 mmHg 59%
23:00 +27°C° 0 mm 2 m/s 759 mmHg 61%

17 Août, Lundi

Heure Température Précipitation Vent Pression Humidité
00:00 +27°C° 0 mm 2 m/s 758 mmHg 63%
01:00 +27°C° 0 mm 2 m/s 758 mmHg 64%
02:00 +26°C° 0 mm 2 m/s 758 mmHg 65%
03:00 +26°C° 0 mm 2 m/s 758 mmHg 65%
04:00 +26°C° 0 mm 2 m/s 759 mmHg 66%
05:00 +27°C° 0 mm 2 m/s 759 mmHg 62%
06:00 +28°C° 0 mm 1 m/s 759 mmHg 57%
07:00 +29°C° 0 mm 1 m/s 759 mmHg 53%
08:00 +31°C° 0 mm 1 m/s 759 mmHg 49%
09:00 +32°C° 0 mm 2 m/s 759 mmHg 45%
10:00 +34°C° 0 mm 2 m/s 760 mmHg 41%
11:00 +34°C° 0 mm 2 m/s 759 mmHg 42%
12:00 +34°C° 0 mm 2 m/s 759 mmHg 44%
13:00 +34°C° 0 mm 3 m/s 759 mmHg 45%
14:00 +34°C° 0 mm 3 m/s 759 mmHg 45%
15:00 +33°C° 0 mm 3 m/s 759 mmHg 46%
16:00 +33°C° 0 mm 4 m/s 758 mmHg 46%
17:00 +31°C° 0 mm 3 m/s 759 mmHg 51%
18:00 +29°C° 0 mm 3 m/s 759 mmHg 55%
19:00 +28°C° 0 mm 2 m/s 759 mmHg 60%
20:00 +28°C° 0 mm 2 m/s 759 mmHg 62%
21:00 +27°C° 0 mm 2 m/s 760 mmHg 63%
22:00 +27°C° 0 mm 2 m/s 760 mmHg 64%
23:00 +26°C° 0 mm 2 m/s 760 mmHg 66%
Voir plus